Theta_e
297 297 298 299 298 298 298 299 299 299 300 301 303 304 304 304 305 306 308 310 310 312 314 315 316 318 318 317 317 317 317 317 317 318 318 318 318 318 318 318 318 318 318 318 319 319 319 319 320 320 321 322 323 324 325 326 327 328 330 330 331 332 332 333 333 333 333 333 332 332 332 331 330 329 328 327 327 327 327 327 328 327 327 327 328 330
295 296 297 297 297 297 297 298 298 298 299 300 302 302 302 302 302 304 305 306 306 307 308 310 312 313 315 316 316 316 315 315 316 316 316 317 317 318 318 318 318 318 318 318 318 318 318 318 319 319 320 320 321 322 323 324 325 326 327 328 330 330 331 332 332 333 333 333 332 332 331 330 329 328 327 327 327 327 327 328 328 328 328 328 329 330
293 294 295 296 296 296 296 296 297 298 299 301 301 301 300 300 300 301 301 302 303 304 305 306 307 307 308 310 311 311 311 311 312 313 314 315 316 317 317 317 317 317 317 317 318 318 318 318 318 318 319 319 319 320 321 321 322 323 324 325 326 327 329 329 330 330 331 331 330 330 329 328 327 326 327 327 328 328 328 328 328 328 328 329 330 331
292 292 293 294 295 295 295 296 297 298 300 301 300 299 298 298 298 298 299 299 300 301 303 303 303 303 304 304 305 306 306 306 307 309 311 313 314 315 316 316 317 317 317 317 317 317 317 317 317 317 318 318 319 319 319 319 320 321 321 322 323 324 325 326 327 327 328 328 327 327 326 326 326 326 327 327 328 328 328 328 328 328 329 329 330 332
291 292 293 293 294 294 295 296 297 299 301 300 298 297 296 296 296 297 297 298 298 299 300 301 301 301 301 301 302 302 304 304 306 308 309 311 312 313 314 315 316 316 317 317 317 317 317 317 317 317 317 317 318 318 318 318 318 319 319 320 321 321 322 323 323 324 325 325 325 325 325 325 325 326 326 327 327 328 328 328 328 329 329 330 331 332
290 291 292 293 293 293 294 295 297 299 299 297 295 294 295 295 295 295 296 296 297 298 299 299 300 300 300 300 301 302 303 304 306 307 308 308 308 308 309 310 312 314 316 316 317 317 317 317 317 317 317 317 317 317 318 318 318 318 318 319 319 319 320 321 322 322 322 323 323 323 323 324 324 325 325 325 326 327 328 328 329 329 329 329 330 331
289 290 291 292 292 293 294 295 297 298 296 293 292 292 293 294 294 294 294 295 296 297 297 298 299 299 299 300 300 301 302 304 305 306 306 306 305 304 304 306 307 309 312 314 316 317 317 317 317 317 317 317 317 317 317 317 317 317 317 317 318 318 319 319 320 321 321 322 322 322 322 322 323 323 323 324 325 326 327 328 329 329 329 329 330 331
288 289 290 290 291 292 292 294 296 296 293 291 290 290 291 291 292 292 293 294 294 295 295 296 296 297 298 298 299 299 300 302 304 304 304 303 302 302 302 303 304 305 307 310 313 315 316 317 317 317 317 317 317 317 317 316 316 316 316 316 316 317 318 319 319 320 320 321 321 321 321 321 322 322 322 322 323 324 325 327 328 329 330 329 330 330
287 288 288 289 290 290 290 293 295 295 292 290 290 289 289 289 289 290 290 291 292 293 293 293 293 294 295 297 298 298 300 302 303 303 302 301 300 301 301 302 303 303 305 307 309 312 314 316 316 317 317 317 317 317 317 316 316 316 315 315 316 316 317 317 318 319 319 320 320 321 321 321 321 321 321 321 321 322 323 325 326 328 329 329 329 330
287 287 287 288 289 289 290 291 292 292 291 290 290 290 289 288 288 288 288 288 290 291 292 292 292 292 293 295 296 298 300 302 303 302 301 300 300 300 301 301 302 303 304 305 307 309 312 313 315 316 316 316 316 316 316 315 315 315 315 315 315 315 316 316 317 318 319 319 320 320 320 321 321 321 321 321 321 321 321 323 324 325 327 328 328 329
286 287 287 287 288 289 289 290 290 290 290 290 289 289 289 289 288 287 286 286 287 288 290 290 291 291 291 293 294 297 299 300 300 299 299 299 299 299 300 300 301 302 303 304 306 308 310 312 314 315 315 315 315 315 315 314 314 314 313 314 314 314 315 316 316 317 317 318 319 319 320 320 321 320 320 320 320 320 320 321 321 322 323 325 326 327
286 286 286 286 287 287 288 289 289 289 288 288 287 287 287 288 288 287 286 286 286 287 288 289 290 291 291 292 294 296 299 298 297 296 296 296 297 297 298 299 300 301 302 304 305 307 309 310 312 313 314 314 314 314 314 313 313 313 313 313 314 314 314 315 316 316 317 317 318 319 319 319 320 320 320 320 320 319 319 319 319 319 320 322 324 325
285 286 286 286 286 286 287 287 287 287 287 287 286 286 286 287 288 288 287 286 286 287 287 288 288 290 291 292 294 296 297 296 294 294 293 294 295 296 296 297 298 299 301 302 304 306 308 310 311 313 313 313 313 313 313 313 312 312 312 313 313 314 314 314 315 316 316 317 317 318 318 319 319 319 320 320 319 319 319 318 318 318 318 319 321 323
284 284 284 284 284 285 285 286 285 285 286 286 286 286 287 287 287 287 286 286 286 287 287 287 287 288 290 292 294 296 296 293 292 292 291 292 293 295 295 296 297 298 300 301 303 304 307 308 310 312 312 313 313 313 313 313 312 312 312 312 313 313 313 314 314 315 315 316 316 317 317 318 318 318 319 319 319 318 318 318 317 317 317 318 319 321
283 283 283 283 283 284 285 285 285 285 286 287 287 287 287 287 286 286 285 285 286 286 287 286 286 287 288 291 293 295 294 292 290 290 289 290 292 294 295 296 297 298 300 301 302 304 306 307 308 308 309 310 311 312 311 312 312 312 312 312 313 313 313 313 313 314 314 315 315 316 316 317 317 318 318 318 318 318 318 317 317 317 317 318 318 319
283 283 283 283 283 284 285 286 286 286 286 287 287 286 285 285 285 285 285 285 285 285 285 285 285 285 286 289 292 293 293 291 289 289 288 289 291 293 295 295 296 297 299 300 302 303 305 305 305 305 305 305 306 306 305 306 308 310 311 312 312 312 312 313 313 313 314 314 314 315 316 316 316 316 317 317 317 317 317 317 317 317 317 317 317 318
284 283 283 283 283 284 285 286 286 286 286 286 285 285 285 285 285 285 285 285 285 285 284 284 283 283 284 286 289 291 292 290 289 288 288 288 290 293 295 295 296 297 298 300 301 302 303 303 302 303 303 304 304 304 304 304 305 306 308 309 310 311 312 312 312 313 313 314 314 314 315 315 315 316 316 316 316 316 316 316 316 316 317 317 317 317
284 284 284 283 284 284 285 285 285 285 285 285 284 284 284 285 285 285 285 285 284 284 284 284 283 283 283 284 286 289 291 290 289 288 288 288 290 292 294 295 296 297 298 298 299 300 300 300 301 302 302 303 304 304 304 304 304 305 305 307 308 310 311 311 312 312 313 313 313 314 314 314 314 314 315 315 315 315 316 316 316 316 316 316 316 317
284 284 284 284 284 284 285 284 284 284 284 284 284 284 284 285 285 285 284 284 284 284 283 283 283 284 284 284 286 289 291 290 289 288 287 288 289 291 294 295 296 296 296 296 297 298 299 300 300 301 302 303 303 303 304 304 304 304 305 305 306 307 309 310 311 312 312 312 313 313 313 313 314 314 314 314 314 315 315 315 315 315 316 316 316 316
284 284 284 284 284 283 283 283 284 284 284 285 285 284 284 284 284 284 284 284 284 284 284 283 283 284 285 285 287 289 290 290 289 288 287 288 289 290 293 294 294 294 294 295 296 297 298 299 300 301 302 302 303 303 303 304 304 304 304 305 305 306 307 308 310 311 311 312 312 312 312 313 313 313 313 313 313 313 314 314 315 315 315 315 316 316
283 284 284 284 283 283 282 283 284 285 286 286 285 285 284 284 284 283 283 284 284 284 284 283 284 284 285 286 287 288 290 289 289 288 288 288 288 290 292 293 293 292 292 294 295 297 298 298 299 300 301 302 302 303 303 304 304 304 304 304 304 305 306 307 308 310 311 311 311 312 312 312 312 312 312 312 313 313 313 314 314 314 315 315 315 315
283 283 283 283 283 282 283 283 285 286 287 287 286 285 284 284 283 283 284 284 284 283 283 283 284 285 286 286 287 288 290 290 289 288 288 287 288 289 291 292 292 292 292 293 295 296 297 297 298 299 300 301 302 302 303 303 304 304 303 303 304 304 305 306 307 309 310 311 311 311 311 311 311 312 312 312 312 312 312 313 313 314 314 314 315 315
283 283 283 282 282 283 284 285 286 287 288 287 286 285 285 285 284 284 284 284 284 283 283 284 285 285 286 286 287 288 289 290 290 290 288 286 287 288 291 292 292 292 292 293 294 294 295 295 296 297 299 300 301 302 303 303 303 303 303 303 303 304 304 306 307 308 309 310 310 310 311 311 311 311 311 311 311 311 311 311 312 313 313 313 314 314
283 283 283 283 284 284 285 286 287 287 288 287 287 286 286 286 286 286 285 285 284 284 284 284 284 283 283 284 285 286 288 289 289 289 287 286 287 288 290 291 291 291 291 292 292 292 292 293 294 295 297 299 301 302 302 302 302 302 302 303 303 303 304 305 306 307 309 309 310 310 310 310 310 310 310 310 310 310 310 310 311 311 312 312 312 313
283 284 284 284 286 287 287 287 288 288 288 287 286 286 286 287 287 286 285 284 284 283 283 282 281 281 281 282 283 284 286 287 287 287 286 286 287 288 290 290 290 289 289 289 290 290 290 291 292 294 296 298 300 301 302 301 301 301 301 302 303 303 304 304 306 307 307 309 309 310 310 310 310 310 310 310 310 310 310 310 310 310 310 310 311 311
285 285 286 286 287 288 288 289 289 289 288 287 287 287 287 287 285 284 282 282 282 282 281 280 279 279 280 281 281 282 284 285 285 286 287 286 286 286 287 288 288 287 287 287 288 289 289 290 291 293 294 297 299 301 301 300 301 301 301 302 302 303 303 304 305 306 307 307 308 309 309 310 310 310 310 310 310 310 310 310 310 310 310 309 309 310
286 286 286 287 287 288 288 288 288 288 288 288 288 287 287 285 283 281 281 281 281 281 280 279 278 279 279 280 280 281 282 283 285 287 288 286 284 283 284 285 286 285 285 286 287 288 289 289 290 292 294 296 298 299 300 300 300 300 300 301 302 302 303 304 304 305 305 306 307 308 309 309 310 310 311 310 310 311 310 310 310 310 310 310 310 310
285 285 285 286 286 287 287 287 287 287 287 288 288 288 286 284 282 280 280 281 281 281 280 279 278 278 278 279 280 281 281 282 285 287 287 284 282 282 282 284 284 284 284 285 286 287 288 289 290 292 294 296 297 298 298 299 299 300 300 301 301 302 303 304 304 305 305 305 305 306 307 308 309 310 310 310 310 310 311 310 310 310 310 310 311 312
284 284 284 285 285 286 286 286 286 286 286 286 286 286 285 283 282 281 281 282 281 280 279 279 279 279 279 279 279 280 280 282 284 286 285 283 281 281 282 283 283 284 284 284 285 286 286 288 290 291 293 295 296 296 297 297 298 299 300 301 301 302 303 303 304 304 304 305 305 305 306 307 307 308 309 309 310 310 310 310 310 310 311 311 312 313
281 282 282 283 283 283 284 283 283 284 285 285 285 285 284 283 282 281 282 282 281 280 279 279 279 279 279 279 279 278 278 280 283 285 284 282 281 281 282 282 283 284 284 283 283 283 284 286 288 291 292 294 294 295 295 296 297 298 299 300 301 302 303 303 303 304 304 304 305 305 305 306 307 307 307 308 309 309 309 309 310 311 312 312 312 313
279 280 280 280 281 281 281 281 282 282 283 283 283 283 283 282 282 282 281 281 280 280 279 279 279 279 279 278 277 277 277 279 283 285 285 282 281 281 282 282 282 283 284 283 282 281 281 284 286 289 291 292 292 293 294 295 296 297 298 299 300 301 302 302 303 303 304 304 305 305 305 305 306 306 307 307 308 308 309 309 309 310 312 312 312 312
279 279 279 279 279 279 279 280 280 280 280 281 281 281 281 281 281 281 281 281 280 280 279 279 279 279 279 278 278 277 278 280 283 285 285 283 281 281 282 282 282 283 284 284 283 281 281 282 284 287 289 290 291 292 294 295 296 297 298 298 299 300 301 302 302 303 304 304 305 305 305 305 305 305 305 306 307 307 308 308 309 310 312 312 312 312
278 278 278 279 279 279 279 279 279 279 279 279 279 280 280 280 281 281 280 280 280 280 279 279 278 278 278 278 278 278 279 281 283 285 285 283 281 281 282 282 282 282 283 284 284 283 282 283 284 285 287 288 290 291 293 294 296 297 297 297 297 298 300 301 301 302 303 304 305 305 305 305 305 305 305 305 306 306 307 307 308 310 311 311 311 311
278 278 278 278 278 278 278 278 278 278 278 278 279 279 279 279 280 280 280 280 280 280 280 279 279 278 278 277 277 278 279 280 283 285 285 283 282 281 282 281 282 282 282 282 283 283 283 284 284 285 285 287 289 290 292 293 295 296 296 296 296 297 298 300 301 301 302 303 304 304 305 305 305 305 305 305 305 306 306 307 307 308 310 310 311 310
277 277 277 277 277 277 277 277 277 277 278 278 278 279 279 279 279 279 279 280 280 280 280 280 280 279 278 277 277 277 278 280 282 284 284 283 282 281 281 281 282 282 282 282 282 282 282 283 284 284 285 286 287 289 291 292 293 294 294 295 296 297 298 299 300 300 301 302 302 303 303 304 305 305 305 305 305 305 306 306 307 307 308 309 310 310
276 276 276 276 276 276 276 277 277 277 277 277 278 278 278 279 279 279 279 279 280 280 281 281 280 280 280 279 278 278 278 280 281 283 284 283 282 282 281 281 282 282 282 282 282 282 282 283 283 284 284 285 286 287 290 291 292 293 294 295 296 297 298 299 300 300 300 301 301 302 302 303 303 304 305 305 305 305 305 305 306 306 307 307 308 309
275 276 276 276 276 276 276 276 276 276 277 277 277 278 278 278 279 279 279 279 279 280 280 280 281 281 281 280 280 279 280 281 281 282 283 283 283 282 281 282 282 283 282 282 282 282 282 282 283 283 284 284 285 286 288 290 292 293 294 295 296 297 298 299 299 300 300 300 301 301 302 302 303 303 305 305 305 305 305 305 305 305 305 306 307 308
275 275 276 276 276 276 276 276 276 276 277 277 277 278 278 278 278 279 279 279 279 279 279 279 280 280 281 281 281 281 281 281 281 282 283 283 282 282 281 281 282 282 282 282 282 282 282 281 281 281 282 283 284 286 288 289 290 291 292 294 295 296 297 298 299 299 300 300 300 301 302 302 302 303 303 304 304 305 305 305 305 305 305 305 306 306
275 275 275 276 276 276 276 276 276 277 277 278 278 278 278 279 279 279 279 279 279 279 279 279 279 279 280 280 281 281 282 281 281 281 282 282 282 281 281 281 281 281 282 283 282 282 282 281 281 281 281 282 284 285 287 288 289 290 291 293 294 295 296 297 298 299 300 300 300 300 301 302 301 301 301 301 302 302 303 303 304 305 305 305 306 306
275 275 276 276 276 276 276 277 277 277 278 278 279 279 279 279 279 279 279 279 279 279 279 280 279 279 280 280 280 280 280 280 280 281 280 280 280 281 281 280 281 281 282 282 282 282 282 282 282 282 282 282 283 284 286 287 289 290 291 290 291 292 294 296 297 298 299 299 300 300 300 301 301 300 300 300 301 301 302 303 303 305 305 305 305 305
276 276 276 276 277 277 277 278 278 278 278 278 278 278 278 278 278 278 278 279 279 279 279 279 279 279 279 279 279 278 279 278 279 279 278 278 278 280 280 281 281 281 282 282 282 282 282 282 282 282 282 283 283 284 285 286 288 289 290 289 290 291 294 295 297 298 298 299 299 300 300 300 300 301 301 301 301 301 302 303 303 304 305 305 305 304
276 276 276 277 277 277 277 278 278 279 279 278 278 277 277 277 277 277 277 277 277 278 278 278 278 277 277 277 277 277 277 277 278 278 278 277 277 278 279 280 281 281 281 281 281 281 282 282 282 282 282 283 283 283 284 285 287 289 289 290 290 292 293 294 295 296 297 297 298 299 300 300 300 300 301 301 301 302 303 303 303 304 305 305 305 305
276 277 277 277 277 278 278 279 279 279 278 278 277 277 277 278 278 278 278 277 277 277 278 278 277 277 276 276 276 277 276 276 276 278 279 277 276 276 279 280 281 281 281 280 280 280 281 281 281 282 282 283 282 283 282 284 285 287 289 290 291 291 291 292 294 295 296 296 297 298 298 299 299 300 300 301 301 301 302 303 304 305 305 305 305 305
277 277 277 277 278 278 278 278 278 278 278 277 277 277 278 278 278 278 278 277 277 277 277 277 277 276 276 276 276 276 277 277 276 276 277 279 279 279 279 280 280 280 281 280 279 279 279 280 280 281 282 282 282 282 282 283 284 286 288 290 291 291 290 292 293 294 294 295 296 297 298 298 299 299 300 300 300 301 301 302 303 304 305 306 306 306
277 277 277 278 278 278 277 277 277 277 277 277 277 277 278 278 278 278 278 277 277 277 277 277 277 276 275 275 276 276 276 277 277 277 277 279 281 282 280 280 280 280 280 280 280 279 279 278 279 280 281 281 281 281 282 283 284 285 287 290 291 292 292 293 293 293 293 294 295 296 297 297 298 298 299 299 299 300 300 300 301 302 303 305 305 306
277 277 277 277 277 277 277 277 277 277 277 277 277 278 278 278 278 278 278 278 277 277 277 277 276 275 275 275 275 276 276 276 277 277 278 278 278 278 279 279 280 280 280 279 279 279 279 279 279 279 280 280 280 281 282 283 284 285 287 289 291 292 292 293 293 293 293 293 294 295 296 296 296 297 297 298 299 299 299 300 301 302 302 303 305 305
276 276 276 276 276 277 277 277 277 277 277 277 277 278 278 278 278 278 278 278 277 277 277 277 276 275 275 275 275 275 275 276 276 277 277 278 278 278 278 279 280 280 280 279 279 279 279 279 279 279 279 279 279 280 281 283 284 286 287 289 290 291 291 292 292 293 294 294 294 294 294 294 295 295 296 297 298 298 299 299 300 301 302 303 304 305
276 276 276 276 276 276 277 277 277 277 277 277 277 278 278 278 278 278 278 277 277 277 277 276 276 275 275 275 276 276 276 276 276 277 277 278 278 278 279 279 279 280 280 280 280 280 280 280 280 279 279 279 279 280 281 283 285 286 287 288 288 289 289 290 291 292 292 292 291 292 292 293 294 294 295 296 296 297 298 298 299 299 300 301 303 303
276 276 277 276 276 276 276 277 277 277 277 277 277 277 278 279 279 279 278 277 277 277 276 276 276 275 275 275 276 276 277 277 277 277 277 278 278 278 278 279 279 279 279 279 279 279 279 280 280 281 281 280 280 281 282 283 284 284 285 286 287 287 287 287 288 288 288 288 288 289 290 292 293 294 295 295 295 295 296 298 298 298 298 299 300 302
277 277 277 276 276 276 276 277 277 277 277 277 277 277 278 278 278 278 278 277 277 277 276 276 276 275 275 275 276 276 277 277 276 277 277 278 278 278 278 278 278 278 278 278 278 278 278 278 279 281 283 283 282 282 281 281 282 282 283 284 285 285 285 285 285 286 286 286 287 287 289 290 292 294 295 294 294 294 295 296 297 297 297 297 298 300
277 277 277 276 276 276 277 277 277 277 277 277 277 278 277 277 277 277 277 277 277 277 276 276 276 276 276 276 276 277 277 277 276 276 277 278 278 278 278 278 278 278 277 277 277 277 277 276 276 277 280 284 284 283 279 279 280 280 281 283 283 283 283 283 284 284 285 285 286 287 288 289 291 293 294 293 293 294 294 295 296 297 296 296 297 298
Wind_Speed
5 6 6 8 8 7 7 9 10 10 9 9 8 8 9 10 10 10 11 12 13 13 13 13 13 13 13 13 14 15 15 16 17 18 19 20 21 22 23 24 24 25 25 25 25 25 24 24 24 24 25 25 25 25 26 26 26 27 27 27 28 28 29 29 30 30 30 29 29 28 28 28 27 27 27 26 25 25 25 25 25 25 25 25 25 26
6 6 6 7 8 7 7 9 9 9 10 9 9 9 10 10 10 9 9 11 12 13 12 13 14 16 17 15 15 16 17 18 19 20 20 21 22 22 23 24 24 24 24 25 25 24 24 24 24 24 24 24 25 25 25 25 26 26 27 27 28 28 29 29 30 30 30 30 29 29 28 28 27 27 27 26 26 26 26 26 26 26 26 26 27 27
6 6 6 7 7 7 7 9 9 9 9 9 9 9 11 11 10 9 9 9 10 10 10 11 12 14 16 17 18 20 22 24 25 25 24 23 23 23 23 24 24 24 24 24 24 24 24 23 23 23 23 24 24 25 25 25 25 25 26 26 27 27 28 28 28 29 29 29 29 28 27 27 26 26 27 27 27 27 27 27 27 27 27 27 28 28
7 7 7 6 6 6 6 8 8 8 7 7 8 10 11 10 9 8 8 9 9 9 9 10 10 11 12 13 16 20 24 26 26 26 26 25 23 22 22 22 23 23 24 24 24 24 23 23 23 22 23 23 24 24 25 25 25 25 25 25 26 26 27 27 27 27 27 27 27 27 26 26 26 26 26 27 27 27 27 27 28 28 28 28 28 29
6 7 7 7 6 6 7 8 8 7 6 7 8 9 9 8 8 8 8 9 9 9 8 8 9 9 9 10 13 18 23 25 25 25 25 25 24 23 22 21 21 22 23 23 24 24 24 23 23 22 22 23 23 24 24 24 24 24 24 24 25 26 26 26 26 26 26 26 26 26 26 26 26 26 26 26 27 27 27 28 28 28 28 28 29 29
6 6 7 6 6 6 7 7 7 6 6 7 8 8 7 7 7 7 8 9 9 9 8 8 8 8 8 9 13 17 21 23 23 23 23 24 25 26 26 25 24 23 22 23 24 24 24 24 24 24 23 23 23 23 24 24 23 23 23 23 24 25 26 26 26 26 26 26 26 26 26 26 26 26 26 26 27 27 28 28 29 29 28 28 28 29
5 5 6 5 5 5 6 6 6 6 7 7 7 7 7 6 6 7 8 8 8 8 8 8 7 7 8 9 12 15 18 19 19 19 19 21 23 25 26 27 27 27 25 24 23 24 25 25 25 25 24 24 23 23 23 23 23 22 22 23 24 24 25 26 26 26 27 27 26 26 26 26 26 26 26 26 27 27 28 29 29 29 29 28 28 29
6 6 5 5 5 5 5 5 5 5 7 7 7 8 7 7 6 7 7 8 7 7 7 8 8 7 7 8 10 12 13 13 13 13 15 17 19 21 23 25 26 27 27 26 25 24 24 24 25 25 25 25 24 24 24 24 23 23 23 23 24 24 25 26 26 27 27 27 27 27 26 26 26 26 26 26 27 27 28 29 29 30 29 28 28 28
6 6 6 5 5 6 6 5 4 5 6 6 7 7 7 8 8 7 7 7 7 6 7 8 8 8 8 8 8 9 10 10 9 9 11 12 14 16 19 20 22 24 26 27 26 25 23 23 23 24 24 24 25 25 25 24 24 24 24 24 24 25 25 26 26 27 27 28 28 27 27 27 26 26 26 26 27 27 28 29 29 30 30 29 28 28
6 6 6 5 5 5 6 5 5 5 5 5 5 5 6 7 9 9 9 8 7 7 7 7 8 9 9 8 8 8 9 9 9 10 12 13 14 16 17 17 18 20 23 25 25 25 24 22 21 22 23 24 24 25 25 25 25 25 25 25 25 26 26 26 27 27 28 28 28 28 28 27 27 27 27 27 27 27 28 28 29 29 29 28 27 27
6 6 6 5 5 4 5 5 4 4 5 6 6 5 5 6 7 9 11 10 9 8 8 7 8 8 9 9 9 8 8 7 8 9 12 13 15 16 17 16 17 18 20 22 22 23 22 21 20 20 21 22 23 24 24 24 24 25 25 26 26 27 27 27 28 28 28 28 28 29 28 28 28 28 27 27 27 27 27 28 28 28 28 27 27 27
5 5 5 5 5 5 5 5 4 5 5 6 6 6 6 5 6 7 9 10 10 10 9 8 8 7 8 8 8 8 7 7 7 8 9 10 11 12 13 13 14 15 16 17 18 19 20 20 19 18 18 20 22 23 23 23 23 24 25 26 27 28 28 28 29 29 29 29 29 29 29 29 29 28 28 28 27 27 27 27 27 27 27 27 27 27
5 5 4 5 5 5 5 5 5 5 5 6 6 7 7 7 6 6 7 8 9 9 9 9 8 7 7 7 6 6 6 7 8 8 8 8 8 9 9 9 10 10 11 11 11 12 15 17 17 16 15 16 18 20 22 22 23 24 25 26 27 28 28 29 29 29 29 29 30 30 30 29 29 29 28 28 27 26 26 26 26 26 27 28 28 28
5 5 5 5 5 5 5 6 6 6 6 5 6 7 7 7 7 7 7 8 8 8 8 9 9 8 6 5 5 5 6 7 8 8 9 8 7 7 7 8 8 8 8 8 8 9 11 12 13 13 14 14 14 16 17 20 22 24 25 25 26 27 28 29 29 30 30 30 30 30 30 29 29 29 28 28 27 26 26 25 25 25 26 27 28 28
6 6 6 6 6 6 5 6 6 6 6 5 6 7 7 8 8 8 8 9 8 8 8 8 8 7 5 4 4 5 6 7 8 9 10 8 7 6 7 8 8 8 7 7 8 8 10 9 10 11 13 16 16 16 16 16 18 22 23 24 26 27 27 28 29 29 30 30 30 30 29 29 29 29 28 28 27 26 25 24 24 25 26 27 27 27
5 5 6 6 6 6 5 5 5 6 6 6 7 7 8 8 8 8 8 9 8 8 8 9 9 8 5 4 4 4 6 7 8 9 10 9 7 6 6 8 8 8 7 7 7 7 8 8 9 10 11 15 17 19 20 21 20 21 21 22 24 26 27 27 28 29 29 29 29 29 29 29 29 28 28 28 27 26 25 24 24 24 25 26 26 26
5 5 6 6 6 6 5 5 5 6 6 6 7 7 7 8 8 8 8 8 8 7 7 7 8 7 6 5 4 4 5 7 8 8 9 9 8 6 6 7 8 8 7 7 7 7 8 8 8 9 10 13 16 18 20 21 22 22 23 22 22 24 26 27 27 28 28 29 29 29 29 29 29 28 28 28 27 27 26 25 25 25 25 26 26 26
5 5 6 6 6 6 6 6 6 6 6 7 7 7 7 7 7 7 7 7 7 7 7 7 6 6 6 6 5 5 6 7 8 9 9 9 8 6 5 6 7 8 8 8 7 7 7 8 8 9 11 15 17 19 20 21 22 23 24 23 22 22 24 25 26 27 28 28 28 28 29 28 28 28 28 28 27 27 26 26 25 25 25 26 26 26
5 5 5 6 6 7 7 7 7 7 7 7 8 8 8 7 6 6 6 6 7 7 7 7 7 6 6 7 7 7 7 8 8 9 9 9 8 6 5 6 7 8 8 8 8 7 7 8 9 12 14 17 18 20 21 22 23 24 24 24 23 22 22 23 25 26 27 28 28 28 28 28 28 28 28 27 27 27 27 27 26 26 26 26 26 26
6 6 6 7 7 8 7 7 7 7 8 8 8 8 7 7 7 7 7 6 6 6 6 7 7 7 7 8 8 8 8 8 8 8 8 8 7 6 5 6 7 8 8 7 7 7 7 8 9 11 14 16 18 20 21 22 23 24 24 24 23 23 22 22 23 25 26 27 27 28 28 28 28 27 27 27 27 27 27 27 27 27 27 27 27 27
8 7 7 6 7 7 7 7 7 8 9 9 8 7 6 6 7 7 7 7 7 7 7 7 7 7 7 8 9 9 8 8 8 8 6 6 6 5 4 5 6 8 8 7 6 6 6 8 8 9 12 15 18 20 21 21 22 23 24 24 24 23 22 21 22 23 25 26 27 27 27 27 27 27 26 26 26 26 26 26 27 27 27 27 28 28
8 7 7 6 6 6 7 8 8 9 10 9 7 6 5 6 7 7 7 7 7 7 8 8 8 8 8 9 9 8 7 7 7 7 6 7 7 6 4 4 5 7 8 7 6 6 7 8 9 10 13 17 19 20 20 20 20 21 23 24 24 24 23 21 20 21 23 25 26 27 27 27 27 27 26 26 25 25 25 25 26 26 27 27 27 28
7 7 7 6 5 5 7 7 7 7 7 7 6 5 5 6 6 7 6 6 7 7 8 8 8 8 8 8 8 7 6 5 6 7 6 8 8 7 5 4 5 6 6 6 6 7 8 9 9 10 13 17 19 19 18 18 18 20 23 25 26 26 24 22 20 20 22 24 26 27 27 27 27 26 26 26 25 25 25 25 25 26 26 26 27 27
6 7 6 6 6 6 6 6 6 6 5 5 5 5 5 5 5 5 5 6 6 7 7 8 8 8 7 7 7 6 5 5 6 6 6 7 7 6 4 5 6 7 7 7 7 9 10 9 9 9 11 15 17 17 16 16 18 20 23 25 26 27 26 23 20 18 19 22 25 27 27 27 27 26 26 26 26 26 26 25 25 26 26 26 27 27
7 7 7 7 8 9 9 9 9 8 8 6 5 5 5 6 6 6 5 6 6 6 7 8 8 8 7 7 7 6 5 5 6 6 6 6 6 6 5 6 7 8 9 8 8 9 9 10 9 9 9 11 13 14 15 16 18 21 23 25 26 26 26 24 21 18 16 18 22 25 27 27 27 27 27 26 26 26 26 26 26 26 26 26 27 27
11 11 12 13 14 16 17 16 16 16 15 12 9 7 6 6 6 6 5 6 6 7 7 8 8 8 7 6 6 5 5 5 5 5 5 5 6 6 6 7 8 9 10 9 9 9 9 10 10 9 8 9 10 11 14 16 19 21 23 24 25 25 26 24 22 20 17 16 18 21 25 27 28 28 27 27 27 27 27 27 27 27 27 26 26 26
16 17 17 18 18 18 18 18 19 19 20 18 15 12 9 7 6 6 6 6 6 7 7 8 8 8 7 7 6 6 5 5 5 4 5 5 6 7 7 7 8 9 10 9 9 9 10 10 9 9 8 7 7 8 13 16 19 20 22 22 23 23 24 23 23 21 19 16 15 16 20 23 26 27 28 28 28 28 28 28 28 28 27 25 23 22
17 17 17 17 17 17 18 18 18 19 19 19 19 17 12 8 6 7 7 6 7 7 7 7 8 8 7 7 7 6 5 4 4 4 5 5 6 6 7 7 7 8 9 9 9 9 10 9 8 8 7 6 6 7 11 14 17 18 19 20 21 21 22 22 22 22 21 19 16 14 14 16 20 23 25 27 27 28 28 28 28 27 25 21 17 15
14 15 15 16 16 16 16 16 16 17 18 19 18 16 12 8 6 7 7 7 7 7 7 7 7 7 7 8 8 6 5 4 4 4 6 5 6 6 6 6 7 7 8 8 8 7 7 6 6 5 5 6 6 7 8 11 13 14 15 17 18 19 19 20 21 21 22 20 18 15 13 12 13 16 19 22 24 26 26 27 26 23 19 16 14 13
11 12 12 12 13 12 12 11 12 14 16 17 17 15 11 7 6 7 7 7 7 7 8 8 8 8 7 8 8 6 4 3 4 5 6 6 6 6 6 7 7 7 7 7 7 6 5 5 4 5 5 6 7 7 7 8 9 9 10 12 14 15 16 17 19 21 22 20 18 16 13 11 10 10 12 15 18 21 23 24 22 18 13 12 12 12
10 10 9 9 8 8 8 8 9 10 12 13 13 12 9 7 7 6 7 7 7 7 8 8 8 8 8 7 6 6 4 4 5 6 6 5 5 6 7 7 7 7 5 6 6 6 6 5 5 5 5 6 7 7 7 7 7 7 7 8 9 11 14 16 17 19 20 19 17 16 13 11 10 8 8 9 12 15 18 20 19 16 11 11 11 12
9 8 8 8 7 6 6 7 8 8 9 9 9 9 8 8 7 7 7 7 7 7 8 8 8 8 8 7 6 6 5 4 6 7 7 6 5 5 6 7 7 7 5 5 6 6 6 6 5 5 6 6 6 6 6 7 7 7 7 7 7 9 12 14 15 16 16 17 16 14 12 11 9 8 6 6 7 10 13 16 16 14 11 10 11 11
8 8 7 7 7 6 6 7 7 7 7 7 7 7 7 7 7 8 7 7 7 7 7 8 8 8 8 8 7 7 6 5 7 9 10 7 5 5 6 7 7 7 6 6 6 6 6 6 6 6 6 6 6 5 6 6 6 6 6 6 7 8 10 11 12 12 13 14 14 13 11 9 8 7 5 4 5 6 9 12 14 14 12 10 10 10
8 8 7 7 7 6 7 7 7 7 7 7 7 7 6 7 7 7 7 7 7 7 7 7 8 8 8 8 8 7 7 7 8 11 11 8 6 5 6 7 7 7 7 6 6 6 6 7 7 7 7 6 5 5 5 5 5 6 5 6 6 6 8 8 9 9 11 12 11 10 9 8 7 7 5 4 4 4 6 9 12 14 14 11 10 9
7 7 7 7 7 7 7 7 7 7 7 7 7 7 7 7 7 7 7 7 7 7 6 6 7 7 8 8 8 9 8 8 9 11 11 9 7 6 6 7 7 7 7 7 7 6 6 7 8 8 8 7 6 5 4 4 4 5 5 5 5 6 6 6 7 8 9 10 10 9 8 7 6 6 5 4 3 4 5 7 10 13 14 13 11 10
7 7 7 7 7 7 7 8 8 7 7 7 7 7 7 7 7 7 7 6 7 7 7 7 7 7 7 7 8 9 10 9 10 11 12 10 8 6 6 6 6 7 8 8 7 7 7 8 9 9 9 8 7 5 4 4 4 4 5 5 5 6 6 6 6 7 7 8 9 9 9 7 6 5 5 4 4 4 5 7 9 11 13 13 13 11
6 7 7 7 7 7 7 7 7 7 7 7 7 7 7 7 7 7 7 6 6 7 7 8 8 8 8 8 8 9 9 10 10 11 12 10 8 7 6 6 7 8 8 8 8 8 8 8 8 9 8 8 7 6 6 6 5 5 5 5 5 6 6 6 6 7 7 8 8 9 9 8 7 6 5 5 5 5 5 7 8 10 12 13 13 13
6 7 7 6 6 7 7 7 7 7 7 7 7 8 8 8 8 8 7 7 7 8 8 7 7 8 10 11 11 11 11 11 12 12 13 10 9 7 7 7 7 8 7 8 8 8 8 8 9 8 8 7 7 8 8 8 7 7 6 5 5 5 6 6 7 7 7 7 8 9 9 8 7 6 5 5 4 4 4 4 5 7 10 11 12 13
6 6 7 7 7 7 7 7 7 7 7 7 7 7 7 8 8 8 7 7 7 7 8 7 7 8 9 10 11 12 12 12 12 12 12 10 8 7 7 8 8 8 8 7 7 8 8 8 8 8 8 8 8 9 8 8 8 8 7 6 6 5 5 6 7 7 8 7 7 7 7 7 7 6 5 4 3 3 4 4 4 4 5 6 8 11
6 6 6 7 7 6 6 7 7 7 7 7 8 8 7 7 7 7 7 7 7 7 7 8 7 7 8 9 10 10 10 9 9 9 8 8 7 7 7 7 8 8 8 7 7 7 8 8 8 8 8 8 8 9 8 8 8 8 9 7 5 5 6 6 7 7 7 7 7 6 6 6 6 6 5 4 3 3 3 3 3 3 3 4 5 6
7 6 6 7 7 7 7 7 7 7 7 7 7 6 6 6 7 7 7 7 7 7 7 7 7 7 7 7 7 7 8 8 8 8 7 8 8 8 7 7 7 7 8 8 8 7 7 8 8 8 8 8 9 9 9 9 10 11 10 8 7 6 6 6 6 6 7 7 7 7 6 6 7 6 6 5 4 4 3 3 4 4 3 3 4 4
8 7 7 7 6 6 6 6 7 7 7 6 6 6 6 6 6 7 7 7 7 7 7 7 8 8 7 7 6 6 6 7 7 8 8 9 9 8 7 6 6 7 8 8 9 8 8 8 8 8 8 8 9 9 9 9 10 10 9 9 8 8 7 5 5 5 6 7 7 7 8 7 7 7 7 6 5 4 3 4 4 4 4 3 4 4
7 7 7 7 6 7 7 7 7 7 7 6 6 6 6 6 6 6 7 7 7 7 8 7 8 8 8 8 7 6 6 5 6 7 8 8 8 7 7 7 6 6 7 8 9 9 9 9 8 8 8 8 8 9 10 10 10 10 9 9 9 7 5 3 3 4 6 7 7 7 6 6 6 7 7 6 5 4 4 4 4 4 4 4 4 5
7 7 7 6 6 7 7 7 7 6 7 7 7 6 6 6 7 7 7 6 7 7 7 7 7 7 8 8 8 8 7 6 6 6 7 8 7 7 7 7 7 6 6 7 8 9 9 9 9 8 8 8 8 9 9 9 9 9 9 10 9 8 5 4 4 5 6 6 7 6 6 6 6 6 6 6 5 5 4 4 4 4 4 5 5 5
6 7 7 7 7 7 7 7 7 7 7 7 7 7 7 7 7 6 6 6 7 7 7 7 7 7 7 8 8 8 7 7 6 6 5 7 8 9 8 7 6 6 6 6 7 7 8 9 9 9 8 8 8 8 9 9 9 10 10 10 9 8 6 5 5 5 5 6 7 7 8 7 7 6 6 5 4 4 4 5 5 5 5 5 5 6
6 7 7 7 7 7 8 8 8 7 7 7 7 7 7 6 6 6 6 6 7 7 7 6 6 6 7 8 8 8 8 8 7 7 6 6 6 6 6 6 6 6 6 6 6 7 7 8 9 9 9 8 8 8 8 8 9 9 9 9 9 8 6 5 5 4 5 6 6 8 9 9 9 7 6 5 4 4 4 4 5 5 6 6 6 6
7 7 7 7 7 7 8 8 8 8 8 8 8 7 7 6 6 6 6 6 6 6 7 6 6 6 7 8 8 8 9 9 9 8 7 7 7 6 6 6 6 7 6 6 7 7 7 8 8 8 7 7 7 8 8 8 8 8 8 8 9 8 7 6 5 6 6 7 8 9 11 10 9 8 7 6 4 4 4 4 4 5 5 5 6 6
7 7 7 7 7 8 8 8 8 8 8 8 8 8 7 7 8 8 7 6 6 6 7 6 6 7 8 8 8 8 9 9 9 9 8 8 7 7 7 7 7 7 7 7 7 7 7 8 8 7 6 6 6 7 7 7 7 7 8 8 8 8 8 8 8 8 9 10 11 12 12 10 9 8 8 7 6 5 4 4 4 4 4 5 5 6
7 7 8 8 8 8 8 8 8 8 8 9 9 8 7 8 9 9 7 6 6 6 6 7 7 8 8 8 8 8 9 9 9 8 8 8 7 7 7 7 7 7 7 7 6 5 5 6 7 7 6 5 5 6 7 7 7 7 8 8 8 8 8 8 9 9 9 10 12 13 12 10 9 8 8 8 7 6 5 5 4 4 4 4 5 5
7 7 7 8 8 8 8 8 8 9 9 9 9 9 8 8 7 7 6 6 6 6 6 7 7 8 8 8 8 9 9 8 8 8 8 7 7 7 8 8 8 8 8 7 6 6 5 5 4 5 6 5 4 4 5 6 6 7 7 7 7 7 7 8 8 8 8 9 10 11 12 10 9 8 7 7 7 7 6 5 5 4 4 4 4 5
8 8 8 8 8 8 8 8 8 9 9 9 9 9 9 8 8 7 6 6 6 6 6 7 7 8 8 9 9 9 9 9 9 9 8 7 7 7 8 8 8 8 8 8 7 7 6 6 5 4 4 4 4 4 3 4 6 6 6 6 6 6 6 7 7 8 8 8 8 9 10 9 9 8 8 7 7 7 6 6 5 5 4 3 3 4
Wind_Direction
333 333 334 340 339 337 338 343 341 337 333 334 335 337 340 338 334 331 333 338 339 338 334 331 328 323 316 306 299 295 295 293 288 282 276 271 266 261 258 255 253 251 249 247 245 243 242 241 240 239 238 238 237 236 235 233 232 231 230 229 228 227 226 225 224 223 221 220 219 218 217 217 216 215 213 212 211 210 209 209 209 208 208 208 208 209
332 331 332 340 341 338 333 340 340 336 331 331 334 339 342 339 336 336 340 343 342 340 337 338 338 337 336 332 325 321 322 320 314 305 296 287 277 270 264 259 255 252 250 247 245 244 242 241 240 240 239 239 238 237 236 235 233 232 231 230 229 229 228 227 226 224 223 222 220 219 218 217 216 215 214 212 211 210 209 209 209 209 208 208 209 209
334 333 335 340 341 339 334 336 335 333 328 330 337 343 343 339 338 339 341 340 338 337 336 339 341 342 342 344 344 343 340 337 332 326 317 306 295 283 273 265 259 254 250 247 245 244 242 241 240 240 240 240 240 239 238 237 235 234 232 231 230 230 229 228 227 225 224 223 221 220 218 217 216 215 214 213 211 210 210 210 210 210 209 209 210 210
335 334 336 336 338 338 334 331 329 328 328 336 344 346 343 340 338 337 338 335 332 331 331 336 338 339 339 341 343 343 342 338 334 331 328 323 315 304 291 278 269 261 253 249 246 244 242 241 240 240 240 241 241 242 241 240 238 236 235 233 232 231 230 228 227 226 224 223 221 220 218 217 216 215 214 213 212 211 210 210 211 211 211 211 211 211
335 334 334 334 333 332 332 327 325 326 335 346 349 346 342 338 336 334 333 331 329 328 327 332 334 335 333 333 335 336 335 332 331 331 334 335 334 329 319 305 290 276 264 256 250 246 243 241 240 239 239 241 242 243 243 242 241 239 237 236 234 233 231 230 228 226 224 223 221 220 218 216 215 214 214 213 212 211 211 211 211 212 212 212 212 213
333 332 331 331 329 328 328 325 326 332 348 352 348 343 337 334 333 332 332 330 328 326 325 327 328 329 329 329 330 330 329 328 328 331 337 342 345 345 341 331 319 305 288 273 261 252 246 243 241 239 239 240 241 242 243 243 243 241 240 238 236 235 233 231 229 227 225 223 222 220 218 217 215 214 213 213 212 212 211 212 212 212 212 213 213 214
327 328 328 326 325 324 324 320 330 348 1 352 344 337 332 331 331 330 327 325 324 323 322 322 323 324 325 327 328 328 326 325 326 330 339 344 347 348 346 342 336 328 314 298 281 266 255 248 243 240 238 238 239 241 242 243 244 244 243 241 239 237 235 233 231 229 227 225 223 221 219 217 216 214 213 212 212 212 211 212 212 212 212 212 213 214
324 326 328 326 325 323 321 319 341 3 6 351 339 333 329 330 329 327 323 321 321 321 322 322 322 323 324 327 327 326 322 321 323 331 340 343 344 344 343 341 338 334 327 317 304 288 270 258 249 243 239 237 237 238 240 242 243 244 244 243 241 239 237 234 232 230 228 226 224 223 221 218 217 215 214 213 212 211 211 211 212 212 211 212 212 214
324 325 327 328 327 325 321 324 348 6 3 347 336 330 328 329 328 326 324 324 324 326 326 325 324 324 323 325 325 322 316 314 322 333 340 340 340 339 337 335 334 331 329 324 317 306 292 274 260 250 242 239 237 237 238 239 241 242 243 243 243 241 238 236 234 232 230 228 226 224 222 220 218 216 214 213 212 211 211 211 211 211 211 210 211 212
324 324 324 326 326 324 321 326 340 352 350 337 329 326 327 330 329 328 327 327 328 329 329 328 325 324 322 323 322 318 312 313 324 335 338 335 333 332 331 329 327 325 324 323 321 316 308 292 276 261 251 245 240 238 237 237 238 239 241 242 242 241 240 238 235 233 231 230 228 226 223 221 219 217 215 214 213 211 211 211 211 212 212 211 211 211
327 325 323 323 324 323 321 326 332 336 334 328 324 325 329 333 332 330 327 327 328 329 329 327 325 323 322 322 320 317 313 320 330 335 334 331 330 328 327 324 322 320 319 320 320 319 316 306 292 276 262 253 247 242 239 237 237 237 238 239 240 240 240 238 236 234 232 230 229 227 225 222 220 218 216 214 213 211 211 211 212 213 214 213 212 211
328 326 324 324 323 324 324 325 326 327 328 329 329 331 335 338 335 329 323 323 324 326 326 323 321 320 318 316 314 315 321 331 335 334 330 329 329 328 326 323 321 319 318 318 319 319 318 314 304 290 275 263 254 248 243 241 239 238 237 238 239 239 239 238 236 234 232 230 229 227 225 223 221 219 216 214 213 211 210 211 212 214 216 215 213 211
328 326 323 323 324 325 326 327 328 330 334 336 336 335 333 335 332 326 318 317 319 321 321 319 318 317 314 310 310 317 331 335 333 329 325 325 327 328 325 321 319 318 317 316 316 317 319 318 312 303 289 275 263 254 249 246 243 241 239 239 238 238 238 237 235 234 232 230 228 226 225 223 221 219 217 215 213 211 210 210 211 213 215 215 214 212
329 327 325 325 326 326 326 327 328 330 335 337 336 332 328 328 326 324 318 315 316 317 316 314 314 315 315 311 316 327 340 335 330 325 321 320 322 324 320 315 312 312 311 310 309 311 317 321 320 317 313 303 284 268 263 255 249 246 243 241 239 238 237 236 234 233 231 229 227 226 224 222 221 219 217 215 213 211 209 209 209 210 211 212 212 212
328 327 325 325 324 324 324 325 326 327 331 334 333 331 327 326 325 324 321 318 318 318 316 314 313 314 314 315 327 339 343 334 327 322 318 316 317 319 316 310 307 305 305 303 304 308 316 322 325 328 331 331 330 326 318 299 273 258 254 247 242 239 237 236 234 233 231 229 227 225 224 222 220 219 217 215 213 211 209 207 207 206 206 208 208 209
326 324 322 321 320 320 321 323 325 327 331 333 334 332 329 326 325 324 321 319 319 320 321 320 319 318 315 317 330 340 341 330 324 319 315 312 314 318 315 308 304 303 302 302 305 310 318 323 324 324 323 327 330 330 329 326 310 290 277 262 251 243 238 236 234 232 231 229 227 225 224 222 221 219 217 215 213 211 208 206 205 205 205 205 206 207
323 322 320 319 319 319 322 325 328 329 331 332 331 329 325 322 320 319 318 319 320 321 322 323 322 320 318 319 328 339 341 328 320 314 310 307 310 314 313 304 300 300 303 305 309 314 320 320 319 316 313 315 318 320 320 320 315 308 301 286 270 255 243 237 234 232 230 229 227 226 224 223 221 219 217 215 213 210 208 206 204 204 204 204 205 205
325 323 321 321 322 324 327 330 331 332 331 329 326 322 318 314 313 314 315 318 319 319 319 319 317 314 314 315 321 333 339 325 315 309 305 303 305 308 307 298 295 297 303 307 311 314 315 313 311 309 307 309 311 313 314 314 313 312 309 300 287 272 256 245 237 233 230 229 227 226 224 223 221 220 218 216 213 210 207 205 204 203 203 203 203 204
330 329 329 328 327 326 328 329 329 330 329 326 322 318 314 313 314 315 315 316 316 316 316 313 311 308 307 306 314 325 332 320 310 303 300 299 302 306 306 299 297 299 303 306 308 310 308 305 304 304 304 307 309 312 313 313 313 312 311 306 299 287 272 256 244 237 232 230 228 226 225 223 222 220 219 216 213 210 207 205 203 202 202 202 202 202
331 331 333 331 327 325 322 323 324 325 322 317 313 310 309 313 316 318 316 315 312 311 311 307 306 306 307 306 312 319 324 315 306 299 296 296 299 303 306 303 302 303 302 302 304 306 306 305 305 306 306 308 311 313 314 315 315 315 314 312 306 297 285 269 255 243 236 232 229 227 225 223 222 220 219 216 214 211 208 205 203 202 201 201 201 201
327 326 330 329 325 320 316 317 318 316 312 309 306 305 308 314 316 316 315 315 314 313 313 307 307 308 311 309 311 314 316 310 304 300 297 295 297 301 308 305 303 301 300 300 303 308 309 309 309 309 309 309 310 312 314 316 318 320 320 317 313 306 295 281 265 251 241 235 231 228 225 223 221 220 218 216 214 212 209 207 205 203 202 201 201 201
319 317 318 317 313 309 307 308 308 307 304 304 305 309 316 318 316 314 316 318 318 317 315 310 308 308 308 304 304 305 305 301 300 301 300 298 299 303 312 305 300 299 298 303 311 317 318 316 313 311 309 308 308 309 312 317 322 326 327 324 320 314 305 292 275 258 246 238 233 229 226 223 220 218 216 214 213 211 209 208 206 205 203 203 202 201
309 306 307 305 303 301 300 300 300 300 301 304 308 313 315 312 310 311 318 321 319 315 311 307 305 303 300 297 297 298 299 300 303 305 303 300 302 307 316 310 304 301 301 313 322 325 321 316 312 308 306 305 305 306 310 319 327 331 331 329 325 321 315 304 288 268 250 240 234 229 226 223 220 217 215 213 211 210 209 208 207 206 205 204 204 203
301 300 300 301 300 300 299 299 302 305 307 310 310 308 303 300 303 309 318 318 314 310 306 305 303 302 299 298 299 301 306 316 319 315 306 298 300 306 320 321 315 311 312 321 325 322 317 311 306 303 302 301 302 306 313 323 331 335 334 331 328 324 321 315 303 283 261 245 236 230 226 223 220 217 215 212 211 210 209 209 208 208 207 207 206 205
307 306 306 307 309 310 312 314 317 320 323 322 318 312 306 308 311 316 317 313 311 309 308 307 307 306 306 307 306 307 315 325 324 315 302 296 299 309 328 332 326 320 317 320 320 316 310 305 303 301 299 299 302 307 317 328 334 335 334 330 327 324 322 319 314 303 281 257 242 233 228 225 222 220 217 215 214 213 213 213 212 212 211 210 209 208
320 319 318 317 317 318 320 323 326 329 332 330 328 325 322 323 324 323 320 317 316 316 314 311 309 308 309 310 309 311 319 323 317 307 301 305 312 320 330 333 327 320 315 314 314 312 306 303 301 300 297 297 303 312 323 331 334 333 331 327 324 321 319 318 317 313 303 279 257 242 233 229 226 224 222 221 220 220 220 220 220 219 217 215 213 211
327 325 323 322 323 325 328 331 333 334 334 334 334 335 335 334 330 325 322 323 322 321 316 313 311 311 312 312 311 313 321 319 314 312 321 322 320 320 323 326 323 317 311 309 309 308 304 300 298 296 295 295 300 314 328 331 331 330 327 323 320 317 315 314 314 314 311 302 284 262 245 236 232 230 228 227 227 227 227 227 227 226 224 221 218 215
332 330 329 329 330 332 335 337 337 337 336 336 337 339 341 339 332 326 325 327 325 321 315 314 313 313 314 312 312 312 317 312 317 329 345 334 322 314 316 319 317 314 310 306 305 303 301 296 293 292 292 298 306 318 327 328 327 325 322 320 317 315 312 310 310 310 310 308 300 286 267 251 241 236 233 232 232 231 231 231 231 229 227 224 222 220
334 334 333 334 335 337 339 339 338 338 337 338 340 342 346 342 333 327 327 329 325 320 316 315 313 313 312 310 309 309 310 307 324 344 350 332 316 307 312 313 314 313 312 308 305 302 299 296 294 294 297 309 316 320 321 321 320 319 318 318 316 313 311 308 308 307 307 306 303 298 289 273 256 245 238 235 234 233 232 231 230 228 225 222 220 219
337 336 336 337 338 338 339 338 338 338 338 338 340 342 345 342 335 330 329 329 325 321 318 317 315 314 313 311 310 308 306 316 339 349 345 327 314 309 314 313 314 315 316 313 310 308 304 303 302 304 310 317 319 317 315 313 311 311 313 316 316 315 313 310 308 307 305 304 303 301 298 290 278 262 247 239 235 232 230 227 225 222 219 216 214 214
339 338 337 338 338 337 336 337 337 338 338 338 339 341 342 340 335 332 331 329 325 321 318 317 315 315 315 314 312 309 308 323 340 345 340 323 314 311 315 313 312 314 317 315 313 311 310 310 311 313 316 315 312 309 307 306 305 307 310 315 319 319 318 314 311 308 306 304 302 301 299 297 293 284 266 250 239 233 228 223 219 215 211 208 208 209
339 338 338 337 337 336 335 337 338 337 336 337 337 338 338 336 335 332 331 327 323 319 317 315 314 314 313 310 306 304 305 317 333 339 338 323 312 309 311 308 308 309 311 308 305 304 306 309 313 315 316 310 306 303 303 301 301 303 309 316 320 322 321 318 315 311 307 304 303 301 301 300 299 295 285 268 250 237 229 222 216 211 206 205 206 207
338 337 336 336 336 336 336 338 338 336 335 335 335 334 334 333 332 330 327 324 320 317 314 314 314 314 313 309 304 300 301 310 326 334 335 323 311 305 306 305 305 307 308 303 298 294 294 300 305 309 309 306 303 302 300 298 298 301 308 315 319 320 321 321 317 313 309 306 304 303 303 302 301 299 295 285 266 248 235 226 219 213 206 205 206 207
336 336 335 336 336 336 337 337 337 335 334 333 333 333 331 330 328 326 323 319 317 314 312 313 314 314 314 311 306 303 302 310 322 328 328 318 308 302 303 304 305 307 309 306 302 298 292 296 301 305 305 305 303 300 296 295 296 299 305 308 310 313 315 316 314 311 308 306 305 305 305 306 306 306 301 295 282 264 248 234 224 218 214 211 208 206
335 335 336 337 337 337 337 337 336 335 333 332 332 331 329 327 325 322 318 315 313 311 310 309 310 310 310 309 307 305 306 311 319 322 318 312 305 301 302 303 306 308 308 307 306 304 299 300 302 305 305 305 304 301 294 292 294 297 299 298 299 301 304 306 305 305 305 305 305 306 308 309 310 310 308 305 295 277 260 244 233 226 221 217 213 208
334 335 337 338 338 337 337 336 334 333 332 331 330 328 326 324 321 318 315 312 310 309 309 307 304 302 301 300 300 301 304 308 312 313 310 307 304 302 300 303 307 308 306 306 305 305 304 303 304 305 305 306 305 305 304 302 301 300 299 298 299 299 299 300 300 300 301 302 304 306 309 310 310 308 309 310 300 285 268 254 243 235 228 223 219 215
334 334 336 337 337 336 335 333 332 331 330 329 326 324 323 320 317 314 313 309 307 307 307 305 302 298 296 294 293 294 297 301 303 304 304 303 302 302 300 302 305 306 304 304 305 305 305 305 306 307 307 306 308 310 313 315 313 310 307 308 307 306 303 301 298 297 296 297 299 302 305 306 305 305 308 312 308 295 276 260 249 240 234 230 226 222
333 334 335 336 336 335 333 330 329 328 327 324 322 320 318 315 312 310 310 309 308 307 306 304 301 297 296 295 293 293 293 294 296 297 299 301 302 302 301 300 301 302 301 301 302 304 305 306 308 309 309 308 308 309 312 314 314 313 313 314 312 309 306 303 300 297 294 292 294 297 301 302 303 305 310 318 323 320 302 282 262 247 237 234 232 229
332 332 333 334 334 332 330 327 324 322 320 317 315 313 312 310 309 309 309 309 308 306 302 301 300 298 298 297 296 295 294 293 293 295 298 300 301 302 301 301 300 301 300 299 299 299 301 302 304 307 309 309 309 310 310 310 310 311 313 314 313 310 308 307 304 300 296 293 292 294 299 302 303 304 306 310 313 312 307 298 283 260 242 238 236 234
330 329 330 331 330 328 324 321 318 315 312 310 309 310 309 309 310 310 311 309 308 306 302 300 299 299 299 299 298 297 295 293 292 293 296 297 298 299 300 300 301 302 304 301 299 297 297 298 298 300 303 304 306 307 309 309 310 312 314 314 313 313 314 310 308 305 303 299 297 296 298 300 300 298 294 288 284 283 286 290 286 274 254 239 235 234
329 328 327 326 325 322 318 315 312 309 308 309 311 312 311 313 313 313 313 312 311 311 310 309 308 305 302 298 294 291 289 288 288 289 290 290 291 293 296 298 301 304 307 306 303 300 299 298 298 298 299 300 301 301 302 304 307 309 310 307 304 303 305 305 307 310 312 311 310 309 308 306 302 297 289 278 268 261 260 271 278 280 270 249 235 228
326 325 324 322 320 319 315 312 310 309 309 311 312 313 312 314 314 315 314 315 316 316 318 318 317 314 310 305 299 292 288 287 287 288 288 287 288 289 291 295 301 306 310 308 306 304 302 301 299 298 299 300 301 301 301 302 304 304 302 299 298 297 296 299 306 316 319 317 316 315 314 312 310 306 299 290 281 271 262 265 271 275 276 262 246 233
323 321 319 317 315 313 312 312 312 313 314 314 313 311 311 311 311 312 312 313 315 316 318 319 318 315 313 312 311 308 302 294 289 287 286 284 282 282 286 292 299 305 309 309 307 306 305 303 300 298 298 300 300 299 299 301 301 301 298 296 296 297 296 308 320 323 320 316 312 308 306 307 306 306 304 301 296 290 283 279 277 277 278 275 262 247
317 317 316 315 314 314 314 315 316 316 316 314 313 310 309 310 309 310 310 310 312 314 317 317 315 313 311 312 313 314 312 308 299 291 285 284 286 290 293 297 298 300 303 305 306 306 307 304 301 298 298 298 297 295 295 297 299 299 299 296 293 291 290 305 318 322 320 318 315 311 307 303 299 297 296 297 299 300 299 298 294 290 284 280 272 260
315 317 318 317 317 318 318 316 316 315 315 313 312 310 309 310 310 310 309 308 310 313 315 315 314 313 313 314 314 315 314 314 312 307 298 293 297 301 301 300 300 299 299 299 299 299 301 300 299 298 297 294 291 290 290 293 295 296 296 295 293 290 289 296 304 311 314 317 319 319 318 312 304 295 288 287 290 295 298 298 295 291 285 281 276 268
318 318 318 318 318 317 316 316 315 314 313 312 311 310 310 310 309 308 307 309 311 312 311 312 312 311 311 313 314 315 315 315 316 316 315 312 309 307 304 301 300 300 299 295 290 286 284 287 290 294 296 294 290 287 285 289 291 294 297 301 302 302 301 301 304 309 314 319 322 325 325 321 314 306 297 291 288 286 286 285 282 280 279 278 277 274
319 318 317 316 315 314 314 314 314 314 313 312 311 310 310 311 310 310 309 311 311 310 309 308 308 307 307 309 312 313 313 314 315 316 318 318 318 316 312 308 306 303 299 293 287 282 276 274 277 281 287 291 291 291 289 290 293 298 305 313 316 317 318 322 328 334 336 336 335 333 331 326 321 316 310 305 298 292 285 280 276 273 273 276 277 277
317 316 314 313 312 312 312 313 314 313 312 311 310 310 311 312 314 315 313 313 311 309 308 309 308 307 306 307 308 309 309 310 311 314 316 317 318 318 318 316 313 310 304 297 289 282 275 271 268 267 269 273 282 289 293 298 305 313 320 324 325 327 329 336 343 348 348 344 340 335 331 327 323 320 317 314 310 305 299 291 284 278 274 274 276 278
314 313 312 311 311 311 311 312 311 311 310 310 310 310 311 312 314 315 312 310 308 307 307 307 307 307 306 306 306 306 307 307 309 311 314 315 316 316 316 317 316 315 312 306 300 291 282 272 264 257 252 252 263 279 294 307 317 324 326 325 327 331 336 339 341 343 343 338 334 331 327 323 319 316 315 314 312 310 308 302 295 288 280 276 274 275
312 311 311 310 310 309 309 309 309 309 308 309 310 310 311 312 313 312 309 306 304 304 303 303 304 305 304 305 306 307 308 309 309 310 312 313 315 315 315 317 318 318 316 316 316 314 310 299 281 264 252 253 263 283 303 316 321 323 321 322 327 332 334 331 331 332 332 329 326 324 321 318 315 314 314 314 312 311 309 307 303 297 286 278 272 271
312 311 311 310 309 308 307 307 307 307 307 308 309 310 311 312 311 310 308 306 305 303 302 301 301 301 301 303 305 307 308 309 309 309 310 311 312 313 313 315 317 319 319 320 322 323 324 322 317 304 282 282 301 319 317 319 320 319 319 322 326 330 327 323 322 322 323 321 319 317 316 315 315 318 321 319 316 313 312 312 309 304 293 284 277 275